ETV Beaufort SC US WEATHERSTEM current weather conditions

sailwx.info

Wind from 150 at 7 knots gusting 14

Air temperature 28.6° C
Dewpoint 23.3° C

Last reported at 2020-Jul-05 23:00 UTC.
Time now 2020-Jul-05 23:39 UTC

Location: N 32°25' W 080°41'.
View on Google Maps.

See reports from other nearby stations

  
Tides and Currents Weather Stations Pressure Air Temp Water Temp Dewpoint Dewpoint Depression Visibility Wind Speed Wind Dir Waves Ship Positions
date/time (UTC)wind fromknots sea level pressurealtimeterstation pressurevisibilityair tempwater tempwave heightnotes
2020-Jul-05 23:00 150 7 gusting 14 28.6
2020-Jul-05 22:40 094 6 gusting 13 28.9
2020-Jul-05 22:30 125 8 gusting 11 29.0
2020-Jul-05 22:20 137 9 gusting 17 29.2
2020-Jul-05 22:10 160 4 gusting 17 29.1
2020-Jul-05 22:00 144 8 gusting 13 29.3
2020-Jul-05 21:40 146 8 gusting 14 29.5
2020-Jul-05 21:30 132 7 gusting 13 29.6
2020-Jul-05 21:20 127 3 gusting 11 29.6
2020-Jul-05 21:10 096 3 gusting 13 29.7
2020-Jul-05 21:00 154 3 gusting 13 29.9
2020-Jul-05 20:40 119 6 gusting 10 29.3
2020-Jul-05 20:30 121 4 gusting 12 29.7
2020-Jul-05 20:20 131 9 gusting 13 29.7
2020-Jul-05 20:10 131 6 gusting 12 29.9
2020-Jul-05 20:00 096 5 gusting 11 29.9
2020-Jul-05 19:40 148 5 gusting 15 29.8
2020-Jul-05 19:30 102 5 gusting 13 29.6
2020-Jul-05 19:20 078 7 gusting 10 29.7
2020-Jul-05 19:00 142 8 gusting 15 28.4
2020-Jul-05 18:40 145 13 gusting 19 29.6
2020-Jul-05 18:30 134 4 gusting 13 29.7
2020-Jul-05 18:20 131 6 gusting 12 29.9
2020-Jul-05 18:10 159 6 gusting 13 30.1
2020-Jul-05 18:00 109 7 gusting 10 30.1
2020-Jul-05 17:40 226 6 gusting 10 30.2
2020-Jul-05 17:30 135 6 gusting 13 29.8
2020-Jul-05 17:20 215 2 gusting 12 30.2
2020-Jul-05 17:10 138 8 gusting 14 30.1
2020-Jul-05 17:00 149 12 gusting 16 30.3
2020-Jul-05 16:40 158 5 gusting 8 30.4
2020-Jul-05 16:30 119 11 gusting 11 30.0
2020-Jul-05 16:20 090 2 gusting 10 29.9
2020-Jul-05 16:10 157 5 gusting 14 29.7
2020-Jul-05 16:00 107 5 gusting 10 30.0
2020-Jul-05 15:40 137 7 gusting 10 30.1
2020-Jul-05 15:30 138 1 gusting 8 29.9
2020-Jul-05 15:20 102 3 gusting 8 29.8
2020-Jul-05 15:10 112 2 gusting 7 29.8
2020-Jul-05 15:00 021 2 gusting 9 29.8
2020-Jul-05 14:50 140 6 gusting 6 30.0
2020-Jul-05 14:40 084 2 gusting 7 29.6
2020-Jul-05 14:30 114 5 gusting 7 29.6
2020-Jul-05 14:10 123 3 gusting 7 29.3
2020-Jul-05 14:00 146 1 gusting 6 29.1
2020-Jul-05 13:50 138 2 gusting 6 28.9
2020-Jul-05 13:40 147 1 gusting 6 28.7
2020-Jul-05 13:30 126 1 gusting 6 28.8
2020-Jul-05 13:10 132 6 gusting 7 28.5
2020-Jul-05 13:00 144 3 gusting 7 28.4
2020-Jul-05 12:50 162 3 gusting 5 28.7
2020-Jul-05 12:40 145 0 gusting 2 28.8
2020-Jul-05 12:20 146 4 gusting 6 28.4
2020-Jul-05 12:10 120 1 gusting 4 28.2
2020-Jul-05 11:50 27.9
2020-Jul-05 11:40 146 0 gusting 2 27.5
2020-Jul-05 11:30 27.1
2020-Jul-05 11:00 25.6
2020-Jul-05 10:40 022 0 gusting 1 25.0
2020-Jul-05 10:30 022 0 gusting 2 25.1
2020-Jul-05 10:10 25.3
2020-Jul-05 10:00 25.3
2020-Jul-05 09:50 25.3
2020-Jul-05 09:40 25.4
2020-Jul-05 09:30 25.6
2020-Jul-05 09:20 25.7
2020-Jul-05 09:00 019 1 gusting 2 25.6
2020-Jul-05 08:50 186 0 gusting 1 25.6
2020-Jul-05 08:40 25.5
2020-Jul-05 08:30 186 0 gusting 1 25.5
2020-Jul-05 08:20 186 1 gusting 1 25.7
2020-Jul-05 08:10 25.8
2020-Jul-05 08:00 186 0 gusting 0 25.9
2020-Jul-05 07:50 25.9
2020-Jul-05 07:40 185 0 gusting 1 26.1
2020-Jul-05 07:10 26.0
2020-Jul-05 07:00 25.9
2020-Jul-05 06:50 197 0 gusting 1 25.9
2020-Jul-05 06:40 197 0 gusting 1 25.9
2020-Jul-05 06:30 197 0 gusting 1 26.1
2020-Jul-05 06:20 26.2
2020-Jul-05 06:10 26.1
2020-Jul-05 06:00 196 0 gusting 2 26.2
2020-Jul-05 05:50 192 0 gusting 2 26.3
2020-Jul-05 05:40 176 1 gusting 1 26.3
2020-Jul-05 05:30 223 0 gusting 3 26.4
2020-Jul-05 05:20 199 1 gusting 2 26.6
2020-Jul-05 05:10 26.7
2020-Jul-05 05:00 164 1 gusting 2 26.8
2020-Jul-05 04:50 163 0 gusting 3 26.8
2020-Jul-05 04:40 170 1 gusting 4 26.8
2020-Jul-05 04:30 26.9
2020-Jul-05 04:20 161 3 gusting 5 27.0
2020-Jul-05 04:10 167 2 gusting 5 27.1
2020-Jul-05 04:00 154 1 gusting 4 27.1
2020-Jul-05 03:50 178 1 gusting 3 27.1
2020-Jul-05 03:40 166 0 gusting 5 27.1
2020-Jul-05 03:30 161 3 gusting 4 27.1
2020-Jul-05 03:20 163 3 gusting 3 27.2
2020-Jul-05 03:10 27.2
2020-Jul-05 03:00 166 2 gusting 4 27.2
2020-Jul-05 02:50 27.3
2020-Jul-05 02:40 148 0 gusting 5 27.3
2020-Jul-05 02:30 171 3 gusting 4 27.3
2020-Jul-05 02:20 192 2 gusting 5 27.3
2020-Jul-05 02:10 183 4 gusting 5 27.3
2020-Jul-05 02:00 169 4 gusting 4 27.4
2020-Jul-05 01:40 174 2 gusting 5 27.4
2020-Jul-05 01:30 194 1 gusting 5 27.5
2020-Jul-05 01:20 160 3 gusting 6 27.6
2020-Jul-05 01:00 157 2 gusting 7 27.7
2020-Jul-05 00:50 171 3 gusting 6 27.8
2020-Jul-05 00:40 190 4 gusting 7 27.9
2020-Jul-05 00:30 159 7 gusting 8 28.1
2020-Jul-05 00:10 200 2 gusting 7 28.3
2020-Jul-05 00:00 153 2 gusting 8 28.4
2020-Jul-04 23:50 169 5 gusting 9 28.5
2020-Jul-04 23:40 173 4 gusting 9 28.7
2020-Jul-04 23:30 154 1 gusting 8 28.9
2020-Jul-04 23:10 165 4 gusting 10 29.1
2020-Jul-04 23:00 174 6 gusting 12 29.2
2020-Jul-04 22:50 154 8 gusting 10 29.3
2020-Jul-04 22:40 133 3 gusting 12 29.6
2020-Jul-04 22:30 184 3 gusting 12 29.7
2020-Jul-04 22:10 192 3 gusting 12 29.8
2020-Jul-04 22:00 134 6 gusting 11 29.9
2020-Jul-04 21:50 153 1 gusting 12 30.0
2020-Jul-04 21:40 146 7 gusting 9 30.2
2020-Jul-04 21:30 140 4 gusting 13 30.1
2020-Jul-04 21:20 145 4 gusting 13 30.0
2020-Jul-04 21:10 149 9 gusting 13 30.1
2020-Jul-04 20:50 164 11 gusting 11 30.3
2020-Jul-04 20:30 140 8 gusting 13 30.3
2020-Jul-04 20:10 199 1 gusting 12 31.1
2020-Jul-04 20:00 184 6 gusting 11 31.1
2020-Jul-04 19:50 212 3 gusting 15 30.6
2020-Jul-04 19:40 167 8 gusting 14 30.6
2020-Jul-04 19:30 152 4 gusting 15 31.1
2020-Jul-04 19:10 176 4 gusting 15 31.2
2020-Jul-04 19:00 180 5 gusting 16 31.2
2020-Jul-04 18:50 134 9 gusting 13 31.3
2020-Jul-04 18:40 143 4 gusting 13 31.3
2020-Jul-04 18:30 173 8 gusting 13 31.4
2020-Jul-04 18:00 144 5 gusting 12 31.3
2020-Jul-04 17:50 124 4 gusting 6 32.1
2020-Jul-04 17:40 105 5 gusting 6 31.8
2020-Jul-04 17:30 131 2 gusting 4 31.2
2020-Jul-04 17:20 080 3 gusting 9 30.9
2020-Jul-04 17:10 092 6 gusting 7 32.4
2020-Jul-04 17:00 092 2 gusting 6 31.4
2020-Jul-04 16:40 092 1 gusting 8 31.3
2020-Jul-04 16:30 098 3 gusting 5 30.8
2020-Jul-04 16:20 071 1 gusting 4 30.8
2020-Jul-04 16:00 092 3 gusting 5 30.2
2020-Jul-04 15:40 076 2 gusting 3 30.2
2020-Jul-04 15:30 161 0 gusting 2 30.8
2020-Jul-04 15:20 084 1 gusting 3 30.9
2020-Jul-04 15:10 088 0 gusting 6 29.6
2020-Jul-04 15:00 088 3 gusting 4 30.0
2020-Jul-04 14:50 071 2 gusting 4 29.7
2020-Jul-04 14:40 111 0 gusting 4 30.1
2020-Jul-04 14:30 042 0 gusting 6 29.1
2020-Jul-04 14:20 053 3 gusting 4 28.6
2020-Jul-04 14:10 056 3 gusting 5 28.6
2020-Jul-04 14:00 062 4 gusting 4 28.4
2020-Jul-04 13:50 068 3 gusting 6 28.3
2020-Jul-04 13:40 024 2 gusting 5 28.2
2020-Jul-04 13:30 042 2 gusting 6 28.2
2020-Jul-04 13:20 052 5 gusting 8 28.2
2020-Jul-04 13:10 070 2 gusting 4 28.1
2020-Jul-04 13:00 054 1 gusting 5 27.8
2020-Jul-04 12:50 022 1 gusting 5 27.4
2020-Jul-04 12:40 311 2 gusting 4 27.4
2020-Jul-04 12:30 019 1 gusting 3 27.2
2020-Jul-04 12:20 26.4
2020-Jul-04 12:10 267 1 gusting 4 26.3
2020-Jul-04 12:00 291 1 gusting 3 26.1
2020-Jul-04 11:50 312 1 gusting 3 25.8
2020-Jul-04 11:40 320 0 gusting 3 25.6
2020-Jul-04 11:30 317 1 gusting 3 25.3
2020-Jul-04 11:20 296 1 gusting 2 25.1
2020-Jul-04 11:00 307 0 gusting 1 24.8
2020-Jul-04 10:50 307 0 gusting 1 24.7
2020-Jul-04 10:40 24.6
2020-Jul-04 10:30 24.6
2020-Jul-04 10:20 317 1 gusting 3 24.6
2020-Jul-04 10:10 304 0 gusting 3 24.6
2020-Jul-04 10:00 293 1 gusting 3 24.6
2020-Jul-04 09:50 295 1 gusting 2 24.7
2020-Jul-04 09:40 24.7
2020-Jul-04 09:30 24.7
2020-Jul-04 09:20 24.7
2020-Jul-04 09:10 295 0 gusting 2 24.7
2020-Jul-04 09:00 295 1 gusting 3 24.8
2020-Jul-04 08:50 252 1 gusting 1 24.7
2020-Jul-04 08:40 251 0 gusting 1 24.8
2020-Jul-04 08:20 251 1 gusting 2 24.8
2020-Jul-04 08:10 251 1 gusting 1 24.9
2020-Jul-04 08:00 251 0 gusting 1 25.0
2020-Jul-04 07:50 251 0 gusting 1 25.1
2020-Jul-04 07:40 251 0 gusting 2 25.2
2020-Jul-04 07:30 214 1 gusting 1 25.2
2020-Jul-04 07:20 214 0 gusting 1 25.4
2020-Jul-04 07:10 214 0 gusting 1 25.4
2020-Jul-04 07:00 214 0 gusting 1 25.5
2020-Jul-04 06:50 214 0 gusting 1 25.5
2020-Jul-04 06:40 214 0 gusting 1 25.6
2020-Jul-04 06:30 214 0 gusting 0 25.7
2020-Jul-04 06:20 214 0 gusting 0 25.7
2020-Jul-04 06:10 214 0 gusting 1 25.8
2020-Jul-04 06:00 214 0 gusting 1 25.8
2020-Jul-04 05:50 214 0 gusting 0 25.9
2020-Jul-04 05:40 214 0 gusting 1 26.0
2020-Jul-04 05:30 214 1 gusting 1 26.0
2020-Jul-04 05:10 214 0 gusting 1 26.2
2020-Jul-04 05:00 26.2
2020-Jul-04 04:50 214 0 gusting 0 26.3
2020-Jul-04 04:40 26.4
2020-Jul-04 04:30 214 0 gusting 0 26.5
2020-Jul-04 04:20 214 0 gusting 1 26.6
2020-Jul-04 04:10 214 0 gusting 1 26.6
2020-Jul-04 04:00 214 0 gusting 1 26.6
2020-Jul-04 03:50 214 0 gusting 2 26.6
2020-Jul-04 03:40 214 1 gusting 2 26.6
2020-Jul-04 03:30 214 0 gusting 2 26.6
2020-Jul-04 03:20 26.8
2020-Jul-04 03:10 214 1 gusting 2 26.8
2020-Jul-04 03:00 175 0 gusting 1 26.9
2020-Jul-04 02:50 27.1
2020-Jul-04 02:40 175 0 gusting 2 27.1
2020-Jul-04 02:30 27.1
2020-Jul-04 02:20 175 0 gusting 2 27.1
2020-Jul-04 02:10 237 0 gusting 1 27.1
2020-Jul-04 01:50 169 1 gusting 5 27.4
2020-Jul-04 01:40 192 3 gusting 6 27.5
2020-Jul-04 01:30 167 2 gusting 7 27.6
2020-Jul-04 01:20 165 7 gusting 9 27.7
2020-Jul-04 01:10 136 6 gusting 9 27.7
2020-Jul-04 01:00 164 10 gusting 10 27.9
2020-Jul-04 00:50 114 2 gusting 6 27.9
2020-Jul-04 00:40 146 5 gusting 6 27.9
2020-Jul-04 00:30 150 5 gusting 6 28.0
2020-Jul-04 00:20 148 8 gusting 8 28.1
2020-Jul-04 00:10 169 1 gusting 7 28.2
2020-Jul-04 00:00 159 1 gusting 12 28.4
2020-Jul-03 23:40 140 6 gusting 12 28.7
2020-Jul-03 23:30 170 3 gusting 11 28.8
2020-Jul-03 23:20 133 6 gusting 12 29.0
2020-Jul-03 23:10 136 6 gusting 12 29.2
2020-Jul-03 23:00 178 4 gusting 12 29.3